Location: Battersea Observatory
(44.4318°N, 76.3841°W)
Time: 21:42:15
(UTC-04:00)

Tiros 1 despin weight - Pass Details

Date: 31 January 2022
Orbit: 592 x 639 km, 48.2° (Epoch: 25 May)

Event Time Altitude Azimuth Distance (km) Brightness Sun altitude
Rises 14:21:37 0° 226° (SW) 2,833 ? 22.3°
Reaches altitude 10° 14:23:57 10° 220° (SW) 1,941 ? 22.1°
Maximum altitude 14:28:13 46° 147° (SSE) 817 ? 21.7°
Drops below altitude 10° 14:32:30 10° 75° (ENE) 1,955 ? 21.2°
Sets 14:34:57 0° 69° (ENE) 2,897 ? 21.0°
